HWL2707 KLAX-KSAN

Flight info

Callsign HWL2707
Flight time 0h 27m
Altitude 13000
Route LAXX1 MZB
Aircraft A359/H-SDE2E3GHIJ3J4J5LM1ORWXY/LB1D1

Departure

Time 2026-04-23 11:31
Airport Los Angeles International Airport (KLAX)

Arrival

Time 2026-04-23 11:58
Airport San Diego International Airport (KSAN)
Time Latitude Longitude Altitude Speed Heading
2026-04-23 11:14 33.94547 -118.41618 99 ft 0 kts 84°
2026-04-23 11:20 33.94547 -118.41619 99 ft 1 kts 84°
2026-04-23 11:20 33.94542 -118.41647 93 ft 4 kts 70°
2026-04-23 11:20 33.94530 -118.41675 101 ft 4 kts 44°
2026-04-23 11:20 33.94509 -118.41691 98 ft 4 kts 14°
2026-04-23 11:21 33.94483 -118.41695 100 ft 4 kts 355°
2026-04-23 11:21 33.94471 -118.41693 100 ft 0 kts 353°
2026-04-23 11:25 33.94487 -118.41694 103 ft 6 kts 355°
2026-04-23 11:25 33.94557 -118.41705 100 ft 14 kts 351°
2026-04-23 11:26 33.94624 -118.41711 101 ft 5 kts 20°
2026-04-23 11:26 33.94646 -118.41674 101 ft 8 kts 64°
2026-04-23 11:26 33.94661 -118.41590 102 ft 13 kts 82°
2026-04-23 11:26 33.94673 -118.41460 100 ft 18 kts 83°
2026-04-23 11:27 33.94691 -118.41288 102 ft 23 kts 83°
2026-04-23 11:27 33.94727 -118.41105 102 ft 22 kts 82°
2026-04-23 11:27 33.94747 -118.40909 103 ft 25 kts 83°
2026-04-23 11:27 33.94769 -118.40684 99 ft 29 kts 83°
2026-04-23 11:28 33.94794 -118.40443 101 ft 28 kts 83°
2026-04-23 11:28 33.94842 -118.40294 100 ft 3 kts 22°
2026-04-23 11:28 33.94874 -118.40272 103 ft 8 kts 37°
2026-04-23 11:28 33.94914 -118.40199 102 ft 11 kts 47°
2026-04-23 11:29 33.94954 -118.40180 104 ft 0 kts
2026-04-23 11:29 33.94955 -118.40180 104 ft 1 kts
2026-04-23 11:30 33.94990 -118.40186 105 ft 7 kts 341°
2026-04-23 11:30 33.95005 -118.40216 106 ft 8 kts 290°
2026-04-23 11:30 33.95012 -118.40260 107 ft 0 kts 260°
2026-04-23 11:30 33.95005 -118.40310 107 ft 35 kts 261°
2026-04-23 11:31 33.94934 -118.41009 103 ft 129 kts 263°
2026-04-23 11:31 33.94817 -118.42134 328 ft 172 kts 263°
2026-04-23 11:31 33.94690 -118.43457 1090 ft 184 kts 264°
2026-04-23 11:31 33.94533 -118.45029 2037 ft 200 kts 264°
2026-04-23 11:32 33.94318 -118.46842 2579 ft 236 kts 264°
2026-04-23 11:32 33.93995 -118.48892 3158 ft 260 kts 255°
2026-04-23 11:32 33.93133 -118.50790 4310 ft 265 kts 231°
2026-04-23 11:32 33.91614 -118.52027 5605 ft 270 kts 200°
2026-04-23 11:33 33.89723 -118.52128 6690 ft 282 kts 167°
2026-04-23 11:33 33.88008 -118.50965 7745 ft 292 kts 135°
2026-04-23 11:33 33.86998 -118.48840 8823 ft 299 kts 103°
2026-04-23 11:33 33.86830 -118.46333 9902 ft 305 kts 81°
2026-04-23 11:34 33.87093 -118.43732 10662 ft 326 kts 81°
2026-04-23 11:34 33.87312 -118.40892 11202 ft 353 kts 84°
2026-04-23 11:34 33.87397 -118.37911 11988 ft 368 kts 88°
2026-04-23 11:34 33.87341 -118.34791 12658 ft 378 kts 92°
2026-04-23 11:35 33.87122 -118.31600 12955 ft 386 kts 96°
2026-04-23 11:35 33.86746 -118.28293 13007 ft 414 kts 99°
2026-04-23 11:35 33.86132 -118.24840 13002 ft 429 kts 105°
2026-04-23 11:35 33.85202 -118.21436 12979 ft 432 kts 112°
2026-04-23 11:36 33.83961 -118.18127 12982 ft 431 kts 118°
2026-04-23 11:36 33.82485 -118.14986 12966 ft 431 kts 121°
2026-04-23 11:36 33.81185 -118.11735 12962 ft 432 kts 114°
2026-04-23 11:36 33.80023 -118.08473 12961 ft 431 kts 116°
2026-04-23 11:37 33.78576 -118.05453 12953 ft 429 kts 128°
2026-04-23 11:37 33.76580 -118.02836 12952 ft 425 kts 140°
2026-04-23 11:37 33.74385 -118.00442 12994 ft 426 kts 141°
2026-04-23 11:37 33.72207 -117.98029 12989 ft 426 kts 140°
2026-04-23 11:38 33.70051 -117.95575 12992 ft 426 kts 139°
2026-04-23 11:38 33.67918 -117.93107 12989 ft 427 kts 139°
2026-04-23 11:38 33.65789 -117.90623 12993 ft 427 kts 139°
2026-04-23 11:38 33.63666 -117.88134 12997 ft 427 kts 139°
2026-04-23 11:39 33.61574 -117.85676 12998 ft 426 kts 139°
2026-04-23 11:39 33.59456 -117.83187 12980 ft 426 kts 139°
2026-04-23 11:39 33.57344 -117.80690 13000 ft 426 kts 138°
2026-04-23 11:39 33.55232 -117.78207 12975 ft 426 kts 138°
2026-04-23 11:40 33.53117 -117.75716 12997 ft 426 kts 139°
2026-04-23 11:40 33.51000 -117.73234 12997 ft 426 kts 139°
2026-04-23 11:40 33.48878 -117.70746 13003 ft 426 kts 139°
2026-04-23 11:40 33.46762 -117.68273 12979 ft 426 kts 139°
2026-04-23 11:41 33.44636 -117.65790 12994 ft 426 kts 139°
2026-04-23 11:41 33.42552 -117.63350 13003 ft 425 kts 139°
2026-04-23 11:41 33.40442 -117.60882 13005 ft 425 kts 139°
2026-04-23 11:41 33.38319 -117.58400 13010 ft 425 kts 139°
2026-04-23 11:42 33.36205 -117.55930 13011 ft 425 kts 139°
2026-04-23 11:42 33.34091 -117.53463 13014 ft 425 kts 139°
2026-04-23 11:42 33.31978 -117.50998 13015 ft 425 kts 139°
2026-04-23 11:42 33.29861 -117.48531 13017 ft 425 kts 139°
2026-04-23 11:43 33.27747 -117.46070 13013 ft 425 kts 139°
2026-04-23 11:43 33.25619 -117.43608 13009 ft 424 kts 140°
2026-04-23 11:43 33.23314 -117.41572 12929 ft 411 kts 156°
2026-04-23 11:43 33.20734 -117.40286 12766 ft 397 kts 165°
2026-04-23 11:44 33.18124 -117.39206 12522 ft 395 kts 166°
2026-04-23 11:44 33.15529 -117.38142 12274 ft 395 kts 165°
2026-04-23 11:44 33.12931 -117.37066 12016 ft 394 kts 165°
2026-04-23 11:44 33.10350 -117.35990 11776 ft 393 kts 165°
2026-04-23 11:45 33.07793 -117.34920 11328 ft 386 kts 165°
2026-04-23 11:45 33.05286 -117.33868 10980 ft 372 kts 164°
2026-04-23 11:45 33.02942 -117.32882 10848 ft 353 kts 165°
2026-04-23 11:45 33.00688 -117.31936 10727 ft 335 kts 165°
2026-04-23 11:46 32.98543 -117.31034 10601 ft 318 kts 165°
2026-04-23 11:46 32.96502 -117.30176 10482 ft 305 kts 165°
2026-04-23 11:46 32.94534 -117.29352 10355 ft 295 kts 165°
2026-04-23 11:46 32.92616 -117.28552 10004 ft 296 kts 165°
2026-04-23 11:47 32.90661 -117.27740 9610 ft 303 kts 165°
2026-04-23 11:47 32.88644 -117.26902 9319 ft 309 kts 164°
2026-04-23 11:47 32.86640 -117.26065 9008 ft 309 kts 164°
2026-04-23 11:47 32.84621 -117.25220 8550 ft 307 kts 164°
2026-04-23 11:48 32.82619 -117.24383 8130 ft 304 kts 163°
2026-04-23 11:48 32.80651 -117.23489 7759 ft 303 kts 157°
2026-04-23 11:48 32.79003 -117.21948 7383 ft 305 kts 128°
2026-04-23 11:48 32.78203 -117.19702 7204 ft 290 kts 97°
2026-04-23 11:49 32.78061 -117.17383 7070 ft 275 kts 89°
2026-04-23 11:49 32.78039 -117.15897 6997 ft 268 kts 88°
2026-04-23 11:49 32.78000 -117.13047 6770 ft 255 kts 88°
2026-04-23 11:49 32.77968 -117.10951 6519 ft 252 kts 88°
2026-04-23 11:50 32.77931 -117.08874 6262 ft 251 kts 88°
2026-04-23 11:50 32.77861 -117.06811 6006 ft 249 kts 93°
2026-04-23 11:50 32.77511 -117.04829 5867 ft 241 kts 103°
2026-04-23 11:50 32.77057 -117.02951 5736 ft 232 kts 104°
2026-04-23 11:51 32.76610 -117.01149 5635 ft 223 kts 104°
2026-04-23 11:51 32.76179 -116.99411 5521 ft 214 kts 104°
2026-04-23 11:51 32.75682 -116.97808 5239 ft 208 kts 115°
2026-04-23 11:51 32.74804 -116.96461 4913 ft 208 kts 140°
2026-04-23 11:52 32.73568 -116.95642 4709 ft 199 kts 165°
2026-04-23 11:52 32.72263 -116.95445 4615 ft 181 kts 187°
2026-04-23 11:52 32.71084 -116.95753 4306 ft 169 kts 207°
2026-04-23 11:52 32.70112 -116.96458 4005 ft 160 kts 224°
2026-04-23 11:53 32.69402 -116.97427 3706 ft 150 kts 240°
2026-04-23 11:53 32.68991 -116.98496 3644 ft 138 kts 255°
2026-04-23 11:53 32.68831 -116.99579 3525 ft 129 kts 269°
2026-04-23 11:53 32.68896 -117.00618 3252 ft 127 kts 282°
2026-04-23 11:54 32.69124 -117.01605 3170 ft 122 kts 287°
2026-04-23 11:54 32.69368 -117.02585 3127 ft 126 kts 287°
2026-04-23 11:54 32.69614 -117.03584 2914 ft 126 kts 287°
2026-04-23 11:54 32.69776 -117.04243 2798 ft 125 kts 286°
2026-04-23 11:55 32.70102 -117.05568 2539 ft 125 kts 285°
2026-04-23 11:55 32.70264 -117.06231 2407 ft 126 kts 285°
2026-04-23 11:55 32.70590 -117.07568 2148 ft 126 kts 285°
2026-04-23 11:55 32.70751 -117.08232 2021 ft 126 kts 285°
2026-04-23 11:56 32.71070 -117.09557 1764 ft 127 kts 285°
2026-04-23 11:56 32.71315 -117.10560 1552 ft 126 kts 286°
2026-04-23 11:56 32.71476 -117.11223 1448 ft 126 kts 286°
2026-04-23 11:56 32.71719 -117.12224 1234 ft 127 kts 286°
2026-04-23 11:57 32.72049 -117.13577 989 ft 129 kts 287°
2026-04-23 11:57 32.72216 -117.14255 837 ft 129 kts 286°
2026-04-23 11:57 32.72462 -117.15272 649 ft 127 kts 286°
2026-04-23 11:57 32.72701 -117.16267 448 ft 125 kts 286°
2026-04-23 11:58 32.73021 -117.17592 159 ft 128 kts 287°
2026-04-23 11:58 32.73266 -117.18578 35 ft 121 kts 285°
2026-04-23 11:58 32.73400 -117.19145 30 ft 82 kts 286°
2026-04-23 11:58 32.73426 -117.19490 33 ft 16 kts 251°
2026-04-23 11:59 32.73417 -117.19653 32 ft 26 kts 287°
2026-04-23 11:59 32.73426 -117.19689 32 ft 0 kts 287°
2026-04-23 11:59 32.73456 -117.19805 33 ft 24 kts 286°
2026-04-23 11:59 32.73479 -117.19941 33 ft 7 kts 251°
2026-04-23 12:00 32.73465 -117.19948 33 ft 1 kts 179°
2026-04-23 12:00 32.73461 -117.19943 33 ft 2 kts 147°
2026-04-23 12:00 32.73461 -117.19926 33 ft 6 kts 84°
2026-04-23 12:00 32.73463 -117.19860 33 ft 9 kts 98°
2026-04-23 12:01 32.73447 -117.19774 33 ft 12 kts 105°
2026-04-23 12:01 32.73421 -117.19663 32 ft 16 kts 105°
2026-04-23 12:01 32.73390 -117.19533 34 ft 18 kts 106°
2026-04-23 12:01 32.73351 -117.19382 32 ft 21 kts 106°
2026-04-23 12:02 32.73319 -117.19249 30 ft 0 kts 106°
2026-04-23 12:03 32.73319 -117.19247 30 ft 1 kts 106°
2026-04-23 12:03 32.73318 -117.19246 30 ft 0 kts 105°
2026-04-23 12:04 32.73318 -117.19245 30 ft 0 kts 105°
2026-04-23 12:04 32.73316 -117.19229 30 ft 9 kts 99°
2026-04-23 12:05 32.73360 -117.19151 30 ft 13 kts 40°
2026-04-23 12:05 32.73440 -117.19086 30 ft 16 kts 36°
2026-04-23 12:05 32.73470 -117.18967 28 ft 16 kts 105°
2026-04-23 12:05 32.73430 -117.18801 28 ft 26 kts 106°
2026-04-23 12:06 32.73375 -117.18574 33 ft 31 kts 106°
2026-04-23 12:06 32.73364 -117.18427 34 ft 9 kts 55°
2026-04-23 12:06 32.73481 -117.18411 33 ft 4 kts 360°
2026-04-23 12:07 32.73508 -117.18381 34 ft 8 kts 53°
2026-04-23 12:07 32.73519 -117.18364 34 ft 0 kts 51°